User: anonymous   Login
Location: Fort Hays State University
(38.8712°N, 99.3432°W)
Time: 05:59:26
(UTC-05:00)
Language:

ALOS - Orbit

View from above orbital plane
View from above orbital plane
View from above satellite
View from above satellite

Ground track
Ground track

The orbit data is extracted from the following two-line orbital elements,

1 28931U 06002A   16242.84692977  .00000012  00000-0  11158-4 0  9991
2 28931  97.8782 278.2693 0002028 113.8265 246.3151 14.62229522564889
Epoch (UTC): 29 August 2016 20:19:34
Eccentricity: 0.0002028
inclination: 97.8782°
perigee height: 684 km
apogee height: 687 km
right ascension of ascending node: 278.2693°
argument of perigee: 113.8265°
revolutions per day: 14.62229522
mean anomaly at epoch: 246.3151°
orbit number at epoch: 56488

The dashed part of the orbit path shows where the satellite is in the earth's shadow,  

DLR